Location: *
(2.5500°S, 65.9667°W)
Time: 06:13:36
(UTC+00:00)

Tiros 1 despin weight - Pass Details

Date: 22 April 2024
Orbit: 578 x 621 km, 48.2° (Epoch: 25 May)

Event Time Altitude Azimuth Distance (km) Brightness Sun altitude
Rises 01:02:57 0° 330° (NNW) 2,879 ? -39.7°
Enters shadow 01:03:52 - 331° (NNW) 2,523 ? -39.9°
Reaches altitude 10° 01:05:18 10° 335° (NNW) 1,975 - -40.3°
Maximum altitude 01:09:44 52° 51° (NE) 770 - -41.3°
Drops below altitude 10° 01:14:09 10° 128° (SE) 1,972 - -42.4°
Sets 01:16:30 0° 132° (SE) 2,873 - -43.0°
